Time,TemperatureF,DewpointF,PressureIn,WindDirection,WindDirectionDegrees,WindSpeedMPH,WindSpeedGustMPH,Humidity,HourlyPrecipIn,Conditions,Clouds,dailyrainin,SoftwareType,DateUTC
2013-04-08 00:02:00,43.0,26.0,-100.00,SW,220,6.0,7.0,51,-99.99,,,-99.99,,2013-04-08 06:02:00,
2013-04-08 00:12:00,43.0,26.0,-100.00,ENE,68,4.0,6.0,50,-99.99,,,-99.99,,2013-04-08 06:12:00,
2013-04-08 00:22:00,44.0,26.0,-100.00,NE,37,2.0,9.0,49,-99.99,,,-99.99,,2013-04-08 06:22:00,
2013-04-08 00:32:00,43.0,25.0,-100.00,NE,48,4.0,5.0,48,-99.99,,,-99.99,,2013-04-08 06:32:00,
2013-04-08 00:42:00,44.0,25.0,-100.00,WNW,301,3.0,6.0,45,-99.99,,,-99.99,,2013-04-08 06:42:00,
2013-04-08 00:52:00,44.0,25.0,-100.00,West,269,4.0,8.0,45,-99.99,,,-99.99,,2013-04-08 06:52:00,
2013-04-08 01:02:00,45.0,23.0,-100.00,ENE,74,6.0,7.0,42,-99.99,,,-99.99,,2013-04-08 07:02:00,
2013-04-08 01:12:00,45.0,25.0,-100.00,ESE,120,5.0,11.0,45,-99.99,,,-99.99,,2013-04-08 07:12:00,
2013-04-08 01:22:00,45.0,23.0,-100.00,ENE,58,6.0,14.0,40,-99.99,,,-99.99,,2013-04-08 07:22:00,
2013-04-08 01:32:00,45.0,23.0,-100.00,ENE,58,6.0,14.0,40,-99.99,,,-99.99,,2013-04-08 07:32:00,
2013-04-08 01:42:00,44.0,24.0,-100.00,East,84,8.0,10.0,43,-99.99,,,-99.99,,2013-04-08 07:42:00,
2013-04-08 01:52:00,45.0,22.0,-100.00,East,88,6.0,8.0,38,-99.99,,,-99.99,,2013-04-08 07:52:00,
2013-04-08 02:02:00,44.0,23.0,-100.00,West,266,7.0,8.0,41,-99.99,,,-99.99,,2013-04-08 08:02:00,
2013-04-08 02:11:00,44.0,23.0,-100.00,West,266,7.0,8.0,41,-99.99,,,-99.99,,2013-04-08 08:11:00,
2013-04-08 02:22:00,44.0,23.0,-100.00,West,266,7.0,8.0,41,-99.99,,,-99.99,,2013-04-08 08:22:00,
2013-04-08 02:32:00,44.0,23.0,-100.00,West,266,7.0,8.0,41,-99.99,,,-99.99,,2013-04-08 08:32:00,
2013-04-08 02:42:00,46.0,19.0,-100.00,NNW,331,3.0,4.0,33,-99.99,,,-99.99,,2013-04-08 08:42:00,
2013-04-08 02:52:00,46.0,19.0,-100.00,NNW,331,3.0,4.0,33,-99.99,,,-99.99,,2013-04-08 08:52:00,
2013-04-08 03:02:00,45.0,21.0,-100.00,WSW,256,7.0,19.0,37,-99.99,,,-99.99,,2013-04-08 09:02:00,
2013-04-08 03:12:00,45.0,21.0,-100.00,WSW,256,7.0,19.0,37,-99.99,,,-99.99,,2013-04-08 09:12:00,
2013-04-08 03:22:00,46.0,19.0,-100.00,West,265,16.0,18.0,33,-99.99,,,-99.99,,2013-04-08 09:22:00,
2013-04-08 03:33:00,46.0,19.0,-100.00,West,265,16.0,18.0,33,-99.99,,,-99.99,,2013-04-08 09:33:00,
2013-04-08 03:42:00,46.0,23.0,-100.00,SW,233,18.0,25.0,40,-99.99,,,-99.99,,2013-04-08 09:42:00,
2013-04-08 03:52:00,44.0,24.0,-100.00,WSW,240,8.0,23.0,44,-99.99,,,-99.99,,2013-04-08 09:52:00,
2013-04-08 04:03:00,44.0,24.0,-100.00,WSW,240,8.0,23.0,44,-99.99,,,-99.99,,2013-04-08 10:03:00,
2013-04-08 04:12:00,44.0,24.0,-100.00,SSE,162,2.0,11.0,44,-99.99,,,-99.99,,2013-04-08 10:12:00,
2013-04-08 04:23:00,43.0,25.0,-100.00,ESE,119,6.0,8.0,48,-99.99,,,-99.99,,2013-04-08 10:23:00,
2013-04-08 04:32:00,43.0,25.0,-100.00,ESE,119,6.0,8.0,48,-99.99,,,-99.99,,2013-04-08 10:32:00,
2013-04-08 04:52:00,43.0,25.0,-100.00,South,181,11.0,15.0,47,-99.99,,,-99.99,,2013-04-08 10:52:00,
2013-04-08 05:02:00,43.0,25.0,-100.00,South,181,11.0,15.0,47,-99.99,,,-99.99,,2013-04-08 11:02:00,
2013-04-08 05:12:00,43.0,25.0,-100.00,West,273,11.0,12.0,50,-99.99,,,-99.99,,2013-04-08 11:12:00,
2013-04-08 05:22:00,42.0,27.0,-100.00,WNW,288,9.0,12.0,54,-99.99,,,-99.99,,2013-04-08 11:22:00,
2013-04-08 05:32:00,42.0,27.0,-100.00,WNW,288,9.0,12.0,54,-99.99,,,-99.99,,2013-04-08 11:32:00,
2013-04-08 05:42:00,41.0,28.0,-100.00,NNW,341,2.0,5.0,60,-99.99,,,-99.99,,2013-04-08 11:42:00,
2013-04-08 05:52:00,41.0,28.0,-100.00,NNW,341,2.0,5.0,60,-99.99,,,-99.99,,2013-04-08 11:52:00,
2013-04-08 06:02:00,41.0,28.0,-100.00,NNW,341,2.0,5.0,60,-99.99,,,-99.99,,2013-04-08 12:02:00,
2013-04-08 06:12:00,40.0,28.0,-100.00,NE,53,3.0,6.0,60,-99.99,,,-99.99,,2013-04-08 12:12:00,
2013-04-08 06:21:00,41.0,28.0,-100.00,ENE,58,5.0,7.0,60,-99.99,,,-99.99,,2013-04-08 12:21:00,
2013-04-08 06:32:00,41.0,28.0,-100.00,ENE,58,5.0,7.0,60,-99.99,,,-99.99,,2013-04-08 12:32:00,
2013-04-08 06:42:00,40.0,29.0,-100.00,NE,53,5.0,9.0,65,-99.99,,,-99.99,,2013-04-08 12:42:00,
2013-04-08 06:52:00,40.0,30.0,-100.00,NE,54,7.0,9.0,65,-99.99,,,-99.99,,2013-04-08 12:52:00,
2013-04-08 07:02:00,40.0,30.0,-100.00,NE,54,7.0,9.0,65,-99.99,,,-99.99,,2013-04-08 13:02:00,
2013-04-08 07:12:00,39.0,31.0,-100.00,ENE,73,6.0,8.0,70,-99.99,,,-99.99,,2013-04-08 13:12:00,
2013-04-08 07:22:00,37.0,30.0,-100.00,North,358,9.0,13.0,75,-99.99,,,-99.99,,2013-04-08 13:22:00,
2013-04-08 07:32:00,37.0,30.0,-100.00,North,358,9.0,13.0,75,-99.99,,,-99.99,,2013-04-08 13:32:00,
2013-04-08 07:42:00,35.0,31.0,-100.00,North,1,5.0,9.0,82,-99.99,,,-99.99,,2013-04-08 13:42:00,
2013-04-08 07:52:00,35.0,31.0,-100.00,North,358,1.0,9.0,83,-99.99,,,-99.99,,2013-04-08 13:52:00,
2013-04-08 08:02:00,35.0,31.0,-100.00,North,358,1.0,9.0,83,-99.99,,,-99.99,,2013-04-08 14:02:00,
2013-04-08 08:12:00,35.0,31.0,-100.00,ENE,63,1.0,4.0,85,-99.99,,,-99.99,,2013-04-08 14:12:00,
2013-04-08 08:22:00,34.0,31.0,-100.00,NNE,17,2.0,3.0,85,-99.99,,,-99.99,,2013-04-08 14:22:00,
2013-04-08 08:32:00,33.0,30.0,-100.00,West,276,3.0,5.0,87,-99.99,,,-99.99,,2013-04-08 14:32:00,
2013-04-08 08:42:00,33.0,30.0,-100.00,West,276,3.0,5.0,87,-99.99,,,-99.99,,2013-04-08 14:42:00,
2013-04-08 08:52:00,33.0,31.0,-100.00,WSW,243,4.0,5.0,89,-99.99,,,-99.99,,2013-04-08 14:52:00,
2013-04-08 09:02:00,33.0,31.0,-100.00,WSW,243,4.0,5.0,89,-99.99,,,-99.99,,2013-04-08 15:02:00,
2013-04-08 09:12:00,33.0,31.0,-100.00,SW,228,3.0,5.0,90,-99.99,,,-99.99,,2013-04-08 15:12:00,
2013-04-08 09:22:00,33.0,30.0,-100.00,North,0,0.0,4.0,90,-99.99,,,-99.99,,2013-04-08 15:22:00,
2013-04-08 09:33:00,33.0,30.0,-100.00,North,0,0.0,1.0,91,-99.99,,,-99.99,,2013-04-08 15:33:00,
2013-04-08 09:42:00,33.0,30.0,-100.00,North,0,0.0,1.0,91,-99.99,,,-99.99,,2013-04-08 15:42:00,
2013-04-08 09:52:00,33.0,30.0,-100.00,North,0,0.0,0.0,91,-99.99,,,-99.99,,2013-04-08 15:52:00,
2013-04-08 10:03:00,33.0,30.0,-100.00,North,0,0.0,0.0,91,-99.99,,,-99.99,,2013-04-08 16:03:00,
2013-04-08 10:12:00,33.0,31.0,-100.00,North,0,0.0,0.0,91,-99.99,,,-99.99,,2013-04-08 16:12:00,
2013-04-08 10:22:00,33.0,31.0,-100.00,North,0,0.0,0.0,92,-99.99,,,-99.99,,2013-04-08 16:22:00,
2013-04-08 10:32:00,33.0,31.0,-100.00,North,0,0.0,0.0,92,-99.99,,,-99.99,,2013-04-08 16:32:00,
2013-04-08 10:42:00,33.0,31.0,-100.00,North,0,0.0,0.0,92,-99.99,,,-99.99,,2013-04-08 16:42:00,
2013-04-08 10:52:00,33.0,31.0,-100.00,North,0,0.0,0.0,92,-99.99,,,-99.99,,2013-04-08 16:52:00,
2013-04-08 11:02:00,33.0,31.0,-100.00,North,0,0.0,0.0,92,-99.99,,,-99.99,,2013-04-08 17:02:00,
2013-04-08 11:12:00,33.0,31.0,-100.00,North,0,0.0,0.0,92,-99.99,,,-99.99,,2013-04-08 17:12:00,
2013-04-08 11:22:00,34.0,32.0,-100.00,North,0,0.0,0.0,93,-99.99,,,-99.99,,2013-04-08 17:22:00,
2013-04-08 11:32:00,34.0,32.0,-100.00,North,0,0.0,0.0,93,-99.99,,,-99.99,,2013-04-08 17:32:00,
2013-04-08 11:42:00,33.0,31.0,-100.00,North,0,0.0,0.0,92,-99.99,,,-99.99,,2013-04-08 17:42:00,
2013-04-08 11:52:00,33.0,31.0,-100.00,North,0,0.0,1.0,92,-99.99,,,-99.99,,2013-04-08 17:52:00,
2013-04-08 12:02:00,33.0,31.0,-100.00,North,0,0.0,1.0,92,-99.99,,,-99.99,,2013-04-08 18:02:00,
2013-04-08 12:11:00,33.0,31.0,-100.00,West,273,6.0,7.0,92,-99.99,,,-99.99,,2013-04-08 18:11:00,
2013-04-08 12:22:00,33.0,31.0,-100.00,West,273,6.0,7.0,92,-99.99,,,-99.99,,2013-04-08 18:22:00,
2013-04-08 12:32:00,33.0,31.0,-100.00,West,273,6.0,7.0,92,-99.99,,,-99.99,,2013-04-08 18:32:00,
2013-04-08 12:42:00,33.0,31.0,-100.00,West,274,7.0,9.0,93,-99.99,,,-99.99,,2013-04-08 18:42:00,
2013-04-08 12:52:00,33.0,31.0,-100.00,West,260,7.0,9.0,93,-99.99,,,-99.99,,2013-04-08 18:52:00,
2013-04-08 13:02:00,33.0,31.0,-100.00,West,260,7.0,9.0,93,-99.99,,,-99.99,,2013-04-08 19:02:00,
2013-04-08 13:12:00,33.0,31.0,-100.00,West,272,11.0,14.0,93,-99.99,,,-99.99,,2013-04-08 19:12:00,
2013-04-08 13:22:00,33.0,31.0,-100.00,West,272,11.0,14.0,93,-99.99,,,-99.99,,2013-04-08 19:22:00,
2013-04-08 13:33:00,33.0,31.0,-100.00,West,272,11.0,14.0,93,-99.99,,,-99.99,,2013-04-08 19:33:00,
2013-04-08 13:42:00,33.0,31.0,-100.00,WNW,290,12.0,14.0,93,-99.99,,,-99.99,,2013-04-08 19:42:00,
2013-04-08 13:52:00,33.0,31.0,-100.00,WNW,290,12.0,14.0,93,-99.99,,,-99.99,,2013-04-08 19:52:00,
2013-04-08 14:02:00,33.0,31.0,-100.00,WNW,290,12.0,14.0,93,-99.99,,,-99.99,,2013-04-08 20:02:00,
2013-04-08 14:12:00,33.0,31.0,-100.00,WNW,283,12.0,14.0,93,-99.99,,,-99.99,,2013-04-08 20:12:00,
2013-04-08 14:22:00,33.0,31.0,-100.00,West,272,12.0,16.0,93,-99.99,,,-99.99,,2013-04-08 20:22:00,
2013-04-08 14:32:00,33.0,31.0,-100.00,West,272,12.0,16.0,93,-99.99,,,-99.99,,2013-04-08 20:32:00,
2013-04-08 14:42:00,33.0,31.0,-100.00,West,275,10.0,13.0,93,-99.99,,,-99.99,,2013-04-08 20:42:00,
2013-04-08 14:52:00,33.0,31.0,-100.00,West,275,11.0,12.0,93,-99.99,,,-99.99,,2013-04-08 20:52:00,
2013-04-08 15:02:00,33.0,31.0,-100.00,West,275,11.0,12.0,93,-99.99,,,-99.99,,2013-04-08 21:02:00,
2013-04-08 15:12:00,33.0,31.0,-100.00,West,267,10.0,11.0,93,-99.99,,,-99.99,,2013-04-08 21:12:00,
2013-04-08 15:22:00,33.0,31.0,-100.00,WSW,254,8.0,11.0,94,-99.99,,,-99.99,,2013-04-08 21:22:00,
2013-04-08 15:32:00,33.0,31.0,-100.00,WSW,254,8.0,11.0,94,-99.99,,,-99.99,,2013-04-08 21:32:00,
2013-04-08 15:42:00,34.0,32.0,-100.00,West,270,6.0,9.0,94,-99.99,,,-99.99,,2013-04-08 21:42:00,
2013-04-08 15:52:00,34.0,33.0,-100.00,West,274,6.0,8.0,94,-99.99,,,-99.99,,2013-04-08 21:52:00,
2013-04-08 16:02:00,34.0,33.0,-100.00,West,274,6.0,8.0,94,-99.99,,,-99.99,,2013-04-08 22:02:00,
2013-04-08 16:12:00,35.0,33.0,-100.00,West,279,10.0,12.0,93,-99.99,,,-99.99,,2013-04-08 22:12:00,
2013-04-08 16:22:00,34.0,32.0,-100.00,West,277,9.0,12.0,92,-99.99,,,-99.99,,2013-04-08 22:22:00,
2013-04-08 16:32:00,34.0,32.0,-100.00,West,277,9.0,12.0,92,-99.99,,,-99.99,,2013-04-08 22:32:00,
2013-04-08 16:42:00,34.0,32.0,-100.00,West,277,9.0,12.0,92,-99.99,,,-99.99,,2013-04-08 22:42:00,
2013-04-08 16:52:00,34.0,32.0,-100.00,WNW,293,11.0,14.0,92,-99.99,,,-99.99,,2013-04-08 22:52:00,
2013-04-08 17:02:00,34.0,32.0,-100.00,WNW,293,11.0,14.0,92,-99.99,,,-99.99,,2013-04-08 23:02:00,
2013-04-08 17:12:00,34.0,32.0,-100.00,West,281,10.0,14.0,92,-99.99,,,-99.99,,2013-04-08 23:12:00,
2013-04-08 17:22:00,34.0,32.0,-100.00,West,281,10.0,14.0,92,-99.99,,,-99.99,,2013-04-08 23:22:00,
2013-04-08 17:32:00,34.0,32.0,-100.00,West,280,12.0,13.0,92,-99.99,,,-99.99,,2013-04-08 23:32:00,
2013-04-08 17:42:00,34.0,32.0,-100.00,WNW,283,12.0,14.0,92,-99.99,,,-99.99,,2013-04-08 23:42:00,
2013-04-08 17:52:00,34.0,32.0,-100.00,WNW,284,12.0,14.0,91,-99.99,,,-99.99,,2013-04-08 23:52:00,
2013-04-08 18:02:00,34.0,32.0,-100.00,WNW,284,12.0,14.0,91,-99.99,,,-99.99,,2013-04-09 00:02:00,
2013-04-08 18:12:00,34.0,32.0,-100.00,WNW,284,12.0,14.0,91,-99.99,,,-99.99,,2013-04-09 00:12:00,
2013-04-08 18:22:00,34.0,32.0,-100.00,WNW,295,8.0,12.0,91,-99.99,,,-99.99,,2013-04-09 00:22:00,
2013-04-08 18:32:00,34.0,32.0,-100.00,WNW,295,8.0,12.0,91,-99.99,,,-99.99,,2013-04-09 00:32:00,
2013-04-08 18:42:00,34.0,32.0,-100.00,WNW,295,8.0,12.0,91,-99.99,,,-99.99,,2013-04-09 00:42:00,
2013-04-08 18:52:00,33.0,32.0,-100.00,WNW,286,8.0,11.0,92,-99.99,,,-99.99,,2013-04-09 00:52:00,
2013-04-08 19:02:00,33.0,32.0,-100.00,WNW,286,8.0,11.0,92,-99.99,,,-99.99,,2013-04-09 01:02:00,
2013-04-08 19:12:00,33.0,31.0,-100.00,WNW,283,6.0,9.0,93,-99.99,,,-99.99,,2013-04-09 01:12:00,
2013-04-08 19:22:00,33.0,31.0,-100.00,WNW,284,9.0,11.0,94,-99.99,,,-99.99,,2013-04-09 01:22:00,
2013-04-08 19:32:00,33.0,31.0,-100.00,WNW,284,9.0,11.0,94,-99.99,,,-99.99,,2013-04-09 01:32:00,
2013-04-08 19:42:00,33.0,31.0,-100.00,WNW,282,11.0,13.0,94,-99.99,,,-99.99,,2013-04-09 01:42:00,
2013-04-08 19:52:00,33.0,31.0,-100.00,West,278,13.0,16.0,94,-99.99,,,-99.99,,2013-04-09 01:52:00,
2013-04-08 20:02:00,33.0,31.0,-100.00,West,278,13.0,16.0,94,-99.99,,,-99.99,,2013-04-09 02:02:00,
2013-04-08 20:12:00,32.0,31.0,-100.00,West,275,12.0,14.0,95,-99.99,,,-99.99,,2013-04-09 02:12:00,
2013-04-08 20:22:00,32.0,31.0,-100.00,West,279,10.0,12.0,95,-99.99,,,-99.99,,2013-04-09 02:22:00,
2013-04-08 20:32:00,32.0,31.0,-100.00,West,279,10.0,12.0,95,-99.99,,,-99.99,,2013-04-09 02:32:00,
2013-04-08 20:42:00,32.0,31.0,-100.00,WNW,282,14.0,17.0,95,-99.99,,,-99.99,,2013-04-09 02:42:00,
2013-04-08 20:52:00,32.0,31.0,-100.00,West,276,16.0,19.0,95,-99.99,,,-99.99,,2013-04-09 02:52:00,
2013-04-08 21:02:00,32.0,31.0,-100.00,West,276,16.0,19.0,95,-99.99,,,-99.99,,2013-04-09 03:02:00,
2013-04-08 21:12:00,31.0,30.0,-100.00,WNW,300,14.0,18.0,95,-99.99,,,-99.99,,2013-04-09 03:12:00,
2013-04-08 21:21:00,31.0,30.0,-100.00,WNW,300,14.0,18.0,95,-99.99,,,-99.99,,2013-04-09 03:21:00,
2013-04-08 21:32:00,31.0,30.0,-100.00,WNW,300,14.0,18.0,95,-99.99,,,-99.99,,2013-04-09 03:32:00,
2013-04-08 21:42:00,30.0,29.0,-100.00,WNW,293,13.0,17.0,96,-99.99,,,-99.99,,2013-04-09 03:42:00,
2013-04-08 21:52:00,29.0,29.0,-100.00,WNW,299,10.0,17.0,96,-99.99,,,-99.99,,2013-04-09 03:52:00,
2013-04-08 22:02:00,29.0,29.0,-100.00,WNW,299,10.0,17.0,96,-99.99,,,-99.99,,2013-04-09 04:02:00,
2013-04-08 22:12:00,28.0,27.0,-100.00,WNW,286,14.0,19.0,96,-99.99,,,-99.99,,2013-04-09 04:12:00,
2013-04-08 22:22:00,27.0,26.0,-100.00,West,281,13.0,18.0,96,-99.99,,,-99.99,,2013-04-09 04:22:00,
2013-04-08 22:32:00,27.0,26.0,-100.00,West,281,13.0,18.0,96,-99.99,,,-99.99,,2013-04-09 04:32:00,
2013-04-08 22:42:00,26.0,25.0,-100.00,WNW,285,12.0,19.0,96,-99.99,,,-99.99,,2013-04-09 04:42:00,
2013-04-08 22:52:00,26.0,25.0,-100.00,WNW,285,12.0,19.0,96,-99.99,,,-99.99,,2013-04-09 04:52:00,
2013-04-08 23:02:00,25.0,25.0,-100.00,West,270,15.0,18.0,96,-99.99,,,-99.99,,2013-04-09 05:02:00,
2013-04-08 23:12:00,25.0,24.0,-100.00,West,281,15.0,20.0,96,-99.99,,,-99.99,,2013-04-09 05:12:00,
2013-04-08 23:22:00,24.0,23.0,-100.00,WNW,283,16.0,21.0,96,-99.99,,,-99.99,,2013-04-09 05:22:00,
2013-04-08 23:32:00,23.0,22.0,-100.00,WNW,283,17.0,21.0,96,-99.99,,,-99.99,,2013-04-09 05:32:00,
2013-04-08 23:42:00,23.0,22.0,-100.00,WNW,284,15.0,21.0,95,-99.99,,,-99.99,,2013-04-09 05:42:00,
2013-04-08 23:52:00,23.0,22.0,-100.00,WNW,284,15.0,21.0,95,-99.99,,,-99.99,,2013-04-09 05:52:00,